owner,sensor,date,latitude,longitude,air_temperature,qcFlag 
COMPS,ioos:station:USF.COMPS:FHP:1,2019-02-01T00:00:00Z,28.1530,-82.8010,15.04,1111122 
COMPS,ioos:station:USF.COMPS:FHP:1,2019-02-01T00:06:00Z,28.1530,-82.8010,14.95,1111122 
COMPS,ioos:station:USF.COMPS:FHP:1,2019-02-01T00:12:00Z,28.1530,-82.8010,14.9,1111122 
COMPS,ioos:station:USF.COMPS:FHP:1,2019-02-01T00:18:00Z,28.1530,-82.8010,14.79,1111122 
COMPS,ioos:station:USF.COMPS:FHP:1,2019-02-01T00:24:00Z,28.1530,-82.8010,14.81,1111122 
COMPS,ioos:station:USF.COMPS:FHP:1,2019-02-01T00:30:00Z,28.1530,-82.8010,14.72,1111122 
COMPS,ioos:station:USF.COMPS:FHP:1,2019-02-01T00:36:00Z,28.1530,-82.8010,14.72,1111122 
COMPS,ioos:station:USF.COMPS:FHP:1,2019-02-01T00:42:00Z,28.1530,-82.8010,14.7,1111122 
COMPS,ioos:station:USF.COMPS:FHP:1,2019-02-01T00:48:00Z,28.1530,-82.8010,14.57,1111122 
COMPS,ioos:station:USF.COMPS:FHP:1,2019-02-01T00:54:00Z,28.1530,-82.8010,14.4,1111122 
COMPS,ioos:station:USF.COMPS:FHP:1,2019-02-01T01:00:00Z,28.1530,-82.8010,14.2,1111122 
COMPS,ioos:station:USF.COMPS:FHP:1,2019-02-01T01:06:00Z,28.1530,-82.8010,14.19,1111122 
COMPS,ioos:station:USF.COMPS:FHP:1,2019-02-01T01:12:00Z,28.1530,-82.8010,14.15,1111122 
COMPS,ioos:station:USF.COMPS:FHP:1,2019-02-01T01:18:00Z,28.1530,-82.8010,14.11,1111122 
COMPS,ioos:station:USF.COMPS:FHP:1,2019-02-01T01:24:00Z,28.1530,-82.8010,14.14,1111122 
COMPS,ioos:station:USF.COMPS:FHP:1,2019-02-01T01:30:00Z,28.1530,-82.8010,14.12,1111122 
COMPS,ioos:station:USF.COMPS:FHP:1,2019-02-01T01:36:00Z,28.1530,-82.8010,14.06,1111122 
COMPS,ioos:station:USF.COMPS:FHP:1,2019-02-01T01:42:00Z,28.1530,-82.8010,13.97,1111122 
COMPS,ioos:station:USF.COMPS:FHP:1,2019-02-01T01:48:00Z,28.1530,-82.8010,13.91,1111122 
COMPS,ioos:station:USF.COMPS:FHP:1,2019-02-01T01:54:00Z,28.1530,-82.8010,13.9,1111122 
COMPS,ioos:station:USF.COMPS:FHP:1,2019-02-01T02:00:00Z,28.1530,-82.8010,13.81,1111122 
COMPS,ioos:station:USF.COMPS:FHP:1,2019-02-01T02:06:00Z,28.1530,-82.8010,13.78,1111122 
COMPS,ioos:station:USF.COMPS:FHP:1,2019-02-01T02:12:00Z,28.1530,-82.8010,13.78,1111122 
COMPS,ioos:station:USF.COMPS:FHP:1,2019-02-01T02:18:00Z,28.1530,-82.8010,13.77,1111122 
COMPS,ioos:station:USF.COMPS:FHP:1,2019-02-01T02:24:00Z,28.1530,-82.8010,13.67,1111122 
COMPS,ioos:station:USF.COMPS:FHP:1,2019-02-01T02:30:00Z,28.1530,-82.8010,13.64,1111122 
COMPS,ioos:station:USF.COMPS:FHP:1,2019-02-01T02:36:00Z,28.1530,-82.8010,13.63,1111122 
COMPS,ioos:station:USF.COMPS:FHP:1,2019-02-01T02:42:00Z,28.1530,-82.8010,13.5,1111122 
COMPS,ioos:station:USF.COMPS:FHP:1,2019-02-01T02:48:00Z,28.1530,-82.8010,13.49,1111122 
COMPS,ioos:station:USF.COMPS:FHP:1,2019-02-01T02:54:00Z,28.1530,-82.8010,13.41,1111122 
COMPS,ioos:station:USF.COMPS:FHP:1,2019-02-01T03:00:00Z,28.1530,-82.8010,13.38,1111122 
COMPS,ioos:station:USF.COMPS:FHP:1,2019-02-01T03:06:00Z,28.1530,-82.8010,13.36,1111122 
COMPS,ioos:station:USF.COMPS:FHP:1,2019-02-01T03:12:00Z,28.1530,-82.8010,13.3,1111122 
COMPS,ioos:station:USF.COMPS:FHP:1,2019-02-01T03:18:00Z,28.1530,-82.8010,13.22,1111122 
COMPS,ioos:station:USF.COMPS:FHP:1,2019-02-01T03:24:00Z,28.1530,-82.8010,13.12,1111122 
COMPS,ioos:station:USF.COMPS:FHP:1,2019-02-01T03:30:00Z,28.1530,-82.8010,13.1,1111122 
COMPS,ioos:station:USF.COMPS:FHP:1,2019-02-01T03:36:00Z,28.1530,-82.8010,13.01,1111122 
COMPS,ioos:station:USF.COMPS:FHP:1,2019-02-01T03:42:00Z,28.1530,-82.8010,12.97,1111122 
COMPS,ioos:station:USF.COMPS:FHP:1,2019-02-01T03:48:00Z,28.1530,-82.8010,12.87,1111122 
COMPS,ioos:station:USF.COMPS:FHP:1,2019-02-01T03:54:00Z,28.1530,-82.8010,12.83,1111122 
COMPS,ioos:station:USF.COMPS:FHP:1,2019-02-01T04:00:00Z,28.1530,-82.8010,12.72,1111122 
COMPS,ioos:station:USF.COMPS:FHP:1,2019-02-01T04:06:00Z,28.1530,-82.8010,12.7,1111122 
COMPS,ioos:station:USF.COMPS:FHP:1,2019-02-01T04:12:00Z,28.1530,-82.8010,12.7,1111122 
COMPS,ioos:station:USF.COMPS:FHP:1,2019-02-01T04:18:00Z,28.1530,-82.8010,12.66,1111122 
COMPS,ioos:station:USF.COMPS:FHP:1,2019-02-01T04:24:00Z,28.1530,-82.8010,12.57,1111122 
COMPS,ioos:station:USF.COMPS:FHP:1,2019-02-01T04:30:00Z,28.1530,-82.8010,12.56,1111122 
COMPS,ioos:station:USF.COMPS:FHP:1,2019-02-01T04:36:00Z,28.1530,-82.8010,12.53,1111122 
COMPS,ioos:station:USF.COMPS:FHP:1,2019-02-01T04:42:00Z,28.1530,-82.8010,12.43,1111122 
COMPS,ioos:station:USF.COMPS:FHP:1,2019-02-01T04:48:00Z,28.1530,-82.8010,12.4,1111122 
COMPS,ioos:station:USF.COMPS:FHP:1,2019-02-01T04:54:00Z,28.1530,-82.8010,12.29,1111122 
COMPS,ioos:station:USF.COMPS:FHP:1,2019-02-01T05:00:00Z,28.1530,-82.8010,12.28,1111122 
COMPS,ioos:station:USF.COMPS:FHP:1,2019-02-01T05:06:00Z,28.1530,-82.8010,12.19,1111122 
COMPS,ioos:station:USF.COMPS:FHP:1,2019-02-01T05:12:00Z,28.1530,-82.8010,12.16,1111122 
COMPS,ioos:station:USF.COMPS:FHP:1,2019-02-01T05:18:00Z,28.1530,-82.8010,12.15,1111122 
COMPS,ioos:station:USF.COMPS:FHP:1,2019-02-01T05:24:00Z,28.1530,-82.8010,12.11,1111122 
COMPS,ioos:station:USF.COMPS:FHP:1,2019-02-01T05:30:00Z,28.1530,-82.8010,12.11,1111122 
COMPS,ioos:station:USF.COMPS:FHP:1,2019-02-01T05:36:00Z,28.1530,-82.8010,12.15,1111122 
COMPS,ioos:station:USF.COMPS:FHP:1,2019-02-01T05:42:00Z,28.1530,-82.8010,12.15,1111122 
COMPS,ioos:station:USF.COMPS:FHP:1,2019-02-01T05:48:00Z,28.1530,-82.8010,12.13,1111122 
COMPS,ioos:station:USF.COMPS:FHP:1,2019-02-01T05:54:00Z,28.1530,-82.8010,12.12,1111122 
COMPS,ioos:station:USF.COMPS:FHP:1,2019-02-01T06:00:00Z,28.1530,-82.8010,12.09,1111122 
COMPS,ioos:station:USF.COMPS:FHP:1,2019-02-01T06:06:00Z,28.1530,-82.8010,12.03,1111122 
COMPS,ioos:station:USF.COMPS:FHP:1,2019-02-01T06:12:00Z,28.1530,-82.8010,12.02,1111122 
COMPS,ioos:station:USF.COMPS:FHP:1,2019-02-01T06:18:00Z,28.1530,-82.8010,11.99,1111122 
COMPS,ioos:station:USF.COMPS:FHP:1,2019-02-01T06:24:00Z,28.1530,-82.8010,11.9,1111122 
COMPS,ioos:station:USF.COMPS:FHP:1,2019-02-01T06:30:00Z,28.1530,-82.8010,11.89,1111122 
COMPS,ioos:station:USF.COMPS:FHP:1,2019-02-01T06:36:00Z,28.1530,-82.8010,11.83,1111122 
COMPS,ioos:station:USF.COMPS:FHP:1,2019-02-01T06:42:00Z,28.1530,-82.8010,11.75,1111122 
COMPS,ioos:station:USF.COMPS:FHP:1,2019-02-01T06:48:00Z,28.1530,-82.8010,11.75,1111122 
COMPS,ioos:station:USF.COMPS:FHP:1,2019-02-01T06:54:00Z,28.1530,-82.8010,11.75,1111122 
COMPS,ioos:station:USF.COMPS:FHP:1,2019-02-01T07:00:00Z,28.1530,-82.8010,11.7,1111122 
COMPS,ioos:station:USF.COMPS:FHP:1,2019-02-01T07:06:00Z,28.1530,-82.8010,11.62,1111122 
COMPS,ioos:station:USF.COMPS:FHP:1,2019-02-01T07:12:00Z,28.1530,-82.8010,11.62,1111122 
COMPS,ioos:station:USF.COMPS:FHP:1,2019-02-01T07:18:00Z,28.1530,-82.8010,11.68,1111122 
COMPS,ioos:station:USF.COMPS:FHP:1,2019-02-01T07:24:00Z,28.1530,-82.8010,11.73,1111122 
COMPS,ioos:station:USF.COMPS:FHP:1,2019-02-01T07:30:00Z,28.1530,-82.8010,11.75,1111122 
COMPS,ioos:station:USF.COMPS:FHP:1,2019-02-01T07:36:00Z,28.1530,-82.8010,11.79,1111122 
COMPS,ioos:station:USF.COMPS:FHP:1,2019-02-01T07:42:00Z,28.1530,-82.8010,11.88,1111122 
COMPS,ioos:station:USF.COMPS:FHP:1,2019-02-01T07:48:00Z,28.1530,-82.8010,11.88,1111122 
COMPS,ioos:station:USF.COMPS:FHP:1,2019-02-01T07:54:00Z,28.1530,-82.8010,11.89,1111122 
COMPS,ioos:station:USF.COMPS:FHP:1,2019-02-01T08:00:00Z,28.1530,-82.8010,11.89,1111122 
COMPS,ioos:station:USF.COMPS:FHP:1,2019-02-01T08:06:00Z,28.1530,-82.8010,11.89,1111122 
COMPS,ioos:station:USF.COMPS:FHP:1,2019-02-01T08:12:00Z,28.1530,-82.8010,11.89,1111122 
COMPS,ioos:station:USF.COMPS:FHP:1,2019-02-01T08:18:00Z,28.1530,-82.8010,11.89,1111122 
COMPS,ioos:station:USF.COMPS:FHP:1,2019-02-01T08:24:00Z,28.1530,-82.8010,11.89,1111122 
COMPS,ioos:station:USF.COMPS:FHP:1,2019-02-01T08:30:00Z,28.1530,-82.8010,11.9,1111122 
COMPS,ioos:station:USF.COMPS:FHP:1,2019-02-01T08:36:00Z,28.1530,-82.8010,11.92,1111122 
COMPS,ioos:station:USF.COMPS:FHP:1,2019-02-01T08:42:00Z,28.1530,-82.8010,12.03,1111122 
COMPS,ioos:station:USF.COMPS:FHP:1,2019-02-01T08:48:00Z,28.1530,-82.8010,12.09,1111122 
COMPS,ioos:station:USF.COMPS:FHP:1,2019-02-01T08:54:00Z,28.1530,-82.8010,12.16,1111122 
COMPS,ioos:station:USF.COMPS:FHP:1,2019-02-01T09:00:00Z,28.1530,-82.8010,12.17,1111122 
COMPS,ioos:station:USF.COMPS:FHP:1,2019-02-01T09:06:00Z,28.1530,-82.8010,12.28,1111122 
COMPS,ioos:station:USF.COMPS:FHP:1,2019-02-01T09:12:00Z,28.1530,-82.8010,12.29,1111122 
COMPS,ioos:station:USF.COMPS:FHP:1,2019-02-01T09:18:00Z,28.1530,-82.8010,12.37,1111122 
COMPS,ioos:station:USF.COMPS:FHP:1,2019-02-01T09:24:00Z,28.1530,-82.8010,12.43,1111122 
COMPS,ioos:station:USF.COMPS:FHP:1,2019-02-01T09:30:00Z,28.1530,-82.8010,12.43,1111122 
COMPS,ioos:station:USF.COMPS:FHP:1,2019-02-01T09:36:00Z,28.1530,-82.8010,12.44,1111122 
COMPS,ioos:station:USF.COMPS:FHP:1,2019-02-01T09:42:00Z,28.1530,-82.8010,12.51,1111122 
COMPS,ioos:station:USF.COMPS:FHP:1,2019-02-01T09:48:00Z,28.1530,-82.8010,12.5,1111122 
COMPS,ioos:station:USF.COMPS:FHP:1,2019-02-01T09:54:00Z,28.1530,-82.8010,12.57,1111122 
COMPS,ioos:station:USF.COMPS:FHP:1,2019-02-01T10:00:00Z,28.1530,-82.8010,12.71,1111122 
COMPS,ioos:station:USF.COMPS:FHP:1,2019-02-01T10:06:00Z,28.1530,-82.8010,12.83,1111122 
COMPS,ioos:station:USF.COMPS:FHP:1,2019-02-01T10:12:00Z,28.1530,-82.8010,12.93,1111122 
COMPS,ioos:station:USF.COMPS:FHP:1,2019-02-01T10:18:00Z,28.1530,-82.8010,12.88,1111122 
COMPS,ioos:station:USF.COMPS:FHP:1,2019-02-01T10:24:00Z,28.1530,-82.8010,12.86,1111122 
COMPS,ioos:station:USF.COMPS:FHP:1,2019-02-01T10:30:00Z,28.1530,-82.8010,12.85,1111122 
COMPS,ioos:station:USF.COMPS:FHP:1,2019-02-01T10:36:00Z,28.1530,-82.8010,12.85,1111122 
COMPS,ioos:station:USF.COMPS:FHP:1,2019-02-01T10:42:00Z,28.1530,-82.8010,12.87,1111122 
COMPS,ioos:station:USF.COMPS:FHP:1,2019-02-01T10:48:00Z,28.1530,-82.8010,12.97,1111122 
COMPS,ioos:station:USF.COMPS:FHP:1,2019-02-01T10:54:00Z,28.1530,-82.8010,12.97,1111122 
COMPS,ioos:station:USF.COMPS:FHP:1,2019-02-01T11:00:00Z,28.1530,-82.8010,12.97,1111122 
COMPS,ioos:station:USF.COMPS:FHP:1,2019-02-01T11:06:00Z,28.1530,-82.8010,12.87,1111122 
COMPS,ioos:station:USF.COMPS:FHP:1,2019-02-01T11:12:00Z,28.1530,-82.8010,12.85,1111122 
COMPS,ioos:station:USF.COMPS:FHP:1,2019-02-01T11:18:00Z,28.1530,-82.8010,12.86,1111122 
COMPS,ioos:station:USF.COMPS:FHP:1,2019-02-01T11:24:00Z,28.1530,-82.8010,12.84,1111122 
COMPS,ioos:station:USF.COMPS:FHP:1,2019-02-01T11:30:00Z,28.1530,-82.8010,12.96,1111122 
COMPS,ioos:station:USF.COMPS:FHP:1,2019-02-01T11:36:00Z,28.1530,-82.8010,13.11,1111122 
COMPS,ioos:station:USF.COMPS:FHP:1,2019-02-01T11:42:00Z,28.1530,-82.8010,13.18,1111122 
COMPS,ioos:station:USF.COMPS:FHP:1,2019-02-01T11:48:00Z,28.1530,-82.8010,13.26,1111122 
COMPS,ioos:station:USF.COMPS:FHP:1,2019-02-01T11:54:00Z,28.1530,-82.8010,13.37,1111122 
COMPS,ioos:station:USF.COMPS:FHP:1,2019-02-01T12:00:00Z,28.1530,-82.8010,13.38,1111122 
COMPS,ioos:station:USF.COMPS:FHP:1,2019-02-01T12:06:00Z,28.1530,-82.8010,13.37,1111122 
COMPS,ioos:station:USF.COMPS:FHP:1,2019-02-01T12:12:00Z,28.1530,-82.8010,13.34,1111122 
COMPS,ioos:station:USF.COMPS:FHP:1,2019-02-01T12:18:00Z,28.1530,-82.8010,13.27,1111122 
COMPS,ioos:station:USF.COMPS:FHP:1,2019-02-01T12:24:00Z,28.1530,-82.8010,13.27,1111122 
COMPS,ioos:station:USF.COMPS:FHP:1,2019-02-01T12:30:00Z,28.1530,-82.8010,13.26,1111122 
COMPS,ioos:station:USF.COMPS:FHP:1,2019-02-01T12:36:00Z,28.1530,-82.8010,13.32,1111122 
COMPS,ioos:station:USF.COMPS:FHP:1,2019-02-01T12:42:00Z,28.1530,-82.8010,13.44,1111122 
COMPS,ioos:station:USF.COMPS:FHP:1,2019-02-01T12:48:00Z,28.1530,-82.8010,13.5,1111122 
COMPS,ioos:station:USF.COMPS:FHP:1,2019-02-01T12:54:00Z,28.1530,-82.8010,13.52,1111122 
COMPS,ioos:station:USF.COMPS:FHP:1,2019-02-01T13:00:00Z,28.1530,-82.8010,13.52,1111122 
COMPS,ioos:station:USF.COMPS:FHP:1,2019-02-01T13:06:00Z,28.1530,-82.8010,13.62,1111122 
COMPS,ioos:station:USF.COMPS:FHP:1,2019-02-01T13:12:00Z,28.1530,-82.8010,13.74,1111122 
COMPS,ioos:station:USF.COMPS:FHP:1,2019-02-01T13:18:00Z,28.1530,-82.8010,13.82,1111122 
COMPS,ioos:station:USF.COMPS:FHP:1,2019-02-01T13:24:00Z,28.1530,-82.8010,13.93,1111122 
COMPS,ioos:station:USF.COMPS:FHP:1,2019-02-01T13:30:00Z,28.1530,-82.8010,14.05,1111122 
COMPS,ioos:station:USF.COMPS:FHP:1,2019-02-01T13:36:00Z,28.1530,-82.8010,14.17,1111122 
COMPS,ioos:station:USF.COMPS:FHP:1,2019-02-01T13:42:00Z,28.1530,-82.8010,14.27,1111122 
COMPS,ioos:station:USF.COMPS:FHP:1,2019-02-01T13:48:00Z,28.1530,-82.8010,14.37,1111122 
COMPS,ioos:station:USF.COMPS:FHP:1,2019-02-01T13:54:00Z,28.1530,-82.8010,14.48,1111122 
COMPS,ioos:station:USF.COMPS:FHP:1,2019-02-01T14:00:00Z,28.1530,-82.8010,14.5,1111122 
COMPS,ioos:station:USF.COMPS:FHP:1,2019-02-01T14:06:00Z,28.1530,-82.8010,14.67,1111122 
COMPS,ioos:station:USF.COMPS:FHP:1,2019-02-01T14:12:00Z,28.1530,-82.8010,14.8,1111122 
COMPS,ioos:station:USF.COMPS:FHP:1,2019-02-01T14:18:00Z,28.1530,-82.8010,14.97,1111122 
COMPS,ioos:station:USF.COMPS:FHP:1,2019-02-01T14:24:00Z,28.1530,-82.8010,15.04,1111122 
COMPS,ioos:station:USF.COMPS:FHP:1,2019-02-01T14:30:00Z,28.1530,-82.8010,15.21,1111122 
COMPS,ioos:station:USF.COMPS:FHP:1,2019-02-01T14:36:00Z,28.1530,-82.8010,15.41,1111122 
COMPS,ioos:station:USF.COMPS:FHP:1,2019-02-01T14:42:00Z,28.1530,-82.8010,15.53,1111122 
COMPS,ioos:station:USF.COMPS:FHP:1,2019-02-01T14:48:00Z,28.1530,-82.8010,15.77,1111122 
COMPS,ioos:station:USF.COMPS:FHP:1,2019-02-01T14:54:00Z,28.1530,-82.8010,15.99,1111122 
COMPS,ioos:station:USF.COMPS:FHP:1,2019-02-01T15:00:00Z,28.1530,-82.8010,16.37,1111122 
COMPS,ioos:station:USF.COMPS:FHP:1,2019-02-01T15:06:00Z,28.1530,-82.8010,16.76,1111122 
COMPS,ioos:station:USF.COMPS:FHP:1,2019-02-01T15:12:00Z,28.1530,-82.8010,16.9,1111122 
COMPS,ioos:station:USF.COMPS:FHP:1,2019-02-01T15:18:00Z,28.1530,-82.8010,17.22,1111122 
COMPS,ioos:station:USF.COMPS:FHP:1,2019-02-01T15:24:00Z,28.1530,-82.8010,17.52,1111122 
COMPS,ioos:station:USF.COMPS:FHP:1,2019-02-01T15:30:00Z,28.1530,-82.8010,17.93,1111122 
COMPS,ioos:station:USF.COMPS:FHP:1,2019-02-01T15:36:00Z,28.1530,-82.8010,18.19,1111122 
COMPS,ioos:station:USF.COMPS:FHP:1,2019-02-01T15:42:00Z,28.1530,-82.8010,18.45,1111122 
COMPS,ioos:station:USF.COMPS:FHP:1,2019-02-01T15:48:00Z,28.1530,-82.8010,18.84,1111122 
COMPS,ioos:station:USF.COMPS:FHP:1,2019-02-01T15:54:00Z,28.1530,-82.8010,19.23,1111122 
COMPS,ioos:station:USF.COMPS:FHP:1,2019-02-01T16:00:00Z,28.1530,-82.8010,18.8,1111122 
COMPS,ioos:station:USF.COMPS:FHP:1,2019-02-01T16:06:00Z,28.1530,-82.8010,19.19,1111122 
COMPS,ioos:station:USF.COMPS:FHP:1,2019-02-01T16:12:00Z,28.1530,-82.8010,19.21,1111122 
COMPS,ioos:station:USF.COMPS:FHP:1,2019-02-01T16:18:00Z,28.1530,-82.8010,19.75,1111122 
COMPS,ioos:station:USF.COMPS:FHP:1,2019-02-01T16:24:00Z,28.1530,-82.8010,19.9,1111122 
COMPS,ioos:station:USF.COMPS:FHP:1,2019-02-01T16:30:00Z,28.1530,-82.8010,19.66,1111122 
COMPS,ioos:station:USF.COMPS:FHP:1,2019-02-01T16:36:00Z,28.1530,-82.8010,20.3,1111122 
COMPS,ioos:station:USF.COMPS:FHP:1,2019-02-01T16:42:00Z,28.1530,-82.8010,20.72,1111122 
COMPS,ioos:station:USF.COMPS:FHP:1,2019-02-01T16:48:00Z,28.1530,-82.8010,20.5,1111122 
COMPS,ioos:station:USF.COMPS:FHP:1,2019-02-01T16:54:00Z,28.1530,-82.8010,20.68,1111122 
COMPS,ioos:station:USF.COMPS:FHP:1,2019-02-01T17:00:00Z,28.1530,-82.8010,20.87,1111122 
COMPS,ioos:station:USF.COMPS:FHP:1,2019-02-01T17:06:00Z,28.1530,-82.8010,21.06,1111122 
COMPS,ioos:station:USF.COMPS:FHP:1,2019-02-01T17:12:00Z,28.1530,-82.8010,21.08,1111122 
COMPS,ioos:station:USF.COMPS:FHP:1,2019-02-01T17:18:00Z,28.1530,-82.8010,21.26,1111122 
COMPS,ioos:station:USF.COMPS:FHP:1,2019-02-01T17:24:00Z,28.1530,-82.8010,20.45,1111122 
COMPS,ioos:station:USF.COMPS:FHP:1,2019-02-01T17:30:00Z,28.1530,-82.8010,20.34,1111122 
COMPS,ioos:station:USF.COMPS:FHP:1,2019-02-01T17:36:00Z,28.1530,-82.8010,20.81,1111122 
COMPS,ioos:station:USF.COMPS:FHP:1,2019-02-01T17:42:00Z,28.1530,-82.8010,18.15,1111122 
COMPS,ioos:station:USF.COMPS:FHP:1,2019-02-01T17:48:00Z,28.1530,-82.8010,17.7,1111122 
COMPS,ioos:station:USF.COMPS:FHP:1,2019-02-01T17:54:00Z,28.1530,-82.8010,16.75,1111122 
COMPS,ioos:station:USF.COMPS:FHP:1,2019-02-01T18:00:00Z,28.1530,-82.8010,17.69,1111122 
COMPS,ioos:station:USF.COMPS:FHP:1,2019-02-01T18:06:00Z,28.1530,-82.8010,17.03,1111122 
COMPS,ioos:station:USF.COMPS:FHP:1,2019-02-01T18:12:00Z,28.1530,-82.8010,18.51,1111122 
COMPS,ioos:station:USF.COMPS:FHP:1,2019-02-01T18:18:00Z,28.1530,-82.8010,18.1,1111122 
COMPS,ioos:station:USF.COMPS:FHP:1,2019-02-01T18:24:00Z,28.1530,-82.8010,18.69,1111122 
COMPS,ioos:station:USF.COMPS:FHP:1,2019-02-01T18:30:00Z,28.1530,-82.8010,17.66,1111122 
COMPS,ioos:station:USF.COMPS:FHP:1,2019-02-01T18:36:00Z,28.1530,-82.8010,17.81,1111122 
COMPS,ioos:station:USF.COMPS:FHP:1,2019-02-01T18:42:00Z,28.1530,-82.8010,17.16,1111122 
COMPS,ioos:station:USF.COMPS:FHP:1,2019-02-01T18:48:00Z,28.1530,-82.8010,18.26,1111122 
COMPS,ioos:station:USF.COMPS:FHP:1,2019-02-01T18:54:00Z,28.1530,-82.8010,18.29,1111122 
COMPS,ioos:station:USF.COMPS:FHP:1,2019-02-01T19:00:00Z,28.1530,-82.8010,18.61,1111122 
COMPS,ioos:station:USF.COMPS:FHP:1,2019-02-01T19:06:00Z,28.1530,-82.8010,19.86,1111122 
COMPS,ioos:station:USF.COMPS:FHP:1,2019-02-01T19:12:00Z,28.1530,-82.8010,19.24,1111122 
COMPS,ioos:station:USF.COMPS:FHP:1,2019-02-01T19:18:00Z,28.1530,-82.8010,19.38,1111122 
COMPS,ioos:station:USF.COMPS:FHP:1,2019-02-01T19:24:00Z,28.1530,-82.8010,19.62,1111122 
COMPS,ioos:station:USF.COMPS:FHP:1,2019-02-01T19:30:00Z,28.1530,-82.8010,20.42,1111122 
COMPS,ioos:station:USF.COMPS:FHP:1,2019-02-01T19:36:00Z,28.1530,-82.8010,20.95,1111122 
COMPS,ioos:station:USF.COMPS:FHP:1,2019-02-01T19:42:00Z,28.1530,-82.8010,18.63,1111122 
COMPS,ioos:station:USF.COMPS:FHP:1,2019-02-01T19:48:00Z,28.1530,-82.8010,18.86,1111122 
COMPS,ioos:station:USF.COMPS:FHP:1,2019-02-01T19:54:00Z,28.1530,-82.8010,19.45,1111122 
COMPS,ioos:station:USF.COMPS:FHP:1,2019-02-01T20:00:00Z,28.1530,-82.8010,18.32,1111122 
COMPS,ioos:station:USF.COMPS:FHP:1,2019-02-01T20:06:00Z,28.1530,-82.8010,19.37,1111122 
COMPS,ioos:station:USF.COMPS:FHP:1,2019-02-01T20:12:00Z,28.1530,-82.8010,17.77,1111122 
COMPS,ioos:station:USF.COMPS:FHP:1,2019-02-01T20:18:00Z,28.1530,-82.8010,18.13,1111122 
COMPS,ioos:station:USF.COMPS:FHP:1,2019-02-01T20:24:00Z,28.1530,-82.8010,17.93,1111122 
COMPS,ioos:station:USF.COMPS:FHP:1,2019-02-01T20:30:00Z,28.1530,-82.8010,17.8,1111122 
COMPS,ioos:station:USF.COMPS:FHP:1,2019-02-01T20:36:00Z,28.1530,-82.8010,17.63,1111122 
COMPS,ioos:station:USF.COMPS:FHP:1,2019-02-01T20:42:00Z,28.1530,-82.8010,17.51,1111122 
COMPS,ioos:station:USF.COMPS:FHP:1,2019-02-01T20:48:00Z,28.1530,-82.8010,17.1,1111122 
COMPS,ioos:station:USF.COMPS:FHP:1,2019-02-01T20:54:00Z,28.1530,-82.8010,16.87,1111122 
COMPS,ioos:station:USF.COMPS:FHP:1,2019-02-01T21:00:00Z,28.1530,-82.8010,16.72,1111122 
COMPS,ioos:station:USF.COMPS:FHP:1,2019-02-01T21:06:00Z,28.1530,-82.8010,16.43,1111122 
COMPS,ioos:station:USF.COMPS:FHP:1,2019-02-01T21:12:00Z,28.1530,-82.8010,16.24,1111122 
COMPS,ioos:station:USF.COMPS:FHP:1,2019-02-01T21:18:00Z,28.1530,-82.8010,15.98,1111122 
COMPS,ioos:station:USF.COMPS:FHP:1,2019-02-01T21:24:00Z,28.1530,-82.8010,16.19,1111122 
COMPS,ioos:station:USF.COMPS:FHP:1,2019-02-01T21:30:00Z,28.1530,-82.8010,16.44,1111122 
COMPS,ioos:station:USF.COMPS:FHP:1,2019-02-01T21:36:00Z,28.1530,-82.8010,16.46,1111122 
COMPS,ioos:station:USF.COMPS:FHP:1,2019-02-01T21:42:00Z,28.1530,-82.8010,16.46,1111122 
COMPS,ioos:station:USF.COMPS:FHP:1,2019-02-01T21:48:00Z,28.1530,-82.8010,16.84,1111122 
COMPS,ioos:station:USF.COMPS:FHP:1,2019-02-01T21:54:00Z,28.1530,-82.8010,16.96,1111122 
COMPS,ioos:station:USF.COMPS:FHP:1,2019-02-01T22:00:00Z,28.1530,-82.8010,16.9,1111122 
COMPS,ioos:station:USF.COMPS:FHP:1,2019-02-01T22:06:00Z,28.1530,-82.8010,17.04,1111122 
COMPS,ioos:station:USF.COMPS:FHP:1,2019-02-01T22:12:00Z,28.1530,-82.8010,17.17,1111122 
COMPS,ioos:station:USF.COMPS:FHP:1,2019-02-01T22:18:00Z,28.1530,-82.8010,17.29,1111122 
COMPS,ioos:station:USF.COMPS:FHP:1,2019-02-01T22:24:00Z,28.1530,-82.8010,17.19,1111122 
COMPS,ioos:station:USF.COMPS:FHP:1,2019-02-01T22:30:00Z,28.1530,-82.8010,17.2,1111122 
COMPS,ioos:station:USF.COMPS:FHP:1,2019-02-01T22:36:00Z,28.1530,-82.8010,17.23,1111122 
COMPS,ioos:station:USF.COMPS:FHP:1,2019-02-01T22:42:00Z,28.1530,-82.8010,17.23,1111122 
COMPS,ioos:station:USF.COMPS:FHP:1,2019-02-01T22:48:00Z,28.1530,-82.8010,17.06,1111122 
COMPS,ioos:station:USF.COMPS:FHP:1,2019-02-01T22:54:00Z,28.1530,-82.8010,16.86,1111122 
COMPS,ioos:station:USF.COMPS:FHP:1,2019-02-01T23:00:00Z,28.1530,-82.8010,16.66,1111122 
COMPS,ioos:station:USF.COMPS:FHP:1,2019-02-01T23:06:00Z,28.1530,-82.8010,16.62,1111122 
COMPS,ioos:station:USF.COMPS:FHP:1,2019-02-01T23:12:00Z,28.1530,-82.8010,16.49,1111122 
COMPS,ioos:station:USF.COMPS:FHP:1,2019-02-01T23:18:00Z,28.1530,-82.8010,16.87,1111122 
COMPS,ioos:station:USF.COMPS:FHP:1,2019-02-01T23:24:00Z,28.1530,-82.8010,17.22,1111122 
COMPS,ioos:station:USF.COMPS:FHP:1,2019-02-01T23:30:00Z,28.1530,-82.8010,17.3,1111122 
COMPS,ioos:station:USF.COMPS:FHP:1,2019-02-01T23:36:00Z,28.1530,-82.8010,17.25,1111122 
COMPS,ioos:station:USF.COMPS:FHP:1,2019-02-01T23:42:00Z,28.1530,-82.8010,16.65,1111122 
COMPS,ioos:station:USF.COMPS:FHP:1,2019-02-01T23:48:00Z,28.1530,-82.8010,16.48,1111122 
COMPS,ioos:station:USF.COMPS:FHP:1,2019-02-01T23:54:00Z,28.1530,-82.8010,16.44,1111122 
COMPS,ioos:station:USF.COMPS:FHP:1,2019-02-02T00:00:00Z,28.1530,-82.8010,16.25,1111122 
COMPS,ioos:station:USF.COMPS:FHP:1,2019-02-02T00:06:00Z,28.1530,-82.8010,15.89,1111122 
COMPS,ioos:station:USF.COMPS:FHP:1,2019-02-02T00:12:00Z,28.1530,-82.8010,15.33,1111122 
COMPS,ioos:station:USF.COMPS:FHP:1,2019-02-02T00:18:00Z,28.1530,-82.8010,15.23,1111122 
COMPS,ioos:station:USF.COMPS:FHP:1,2019-02-02T00:24:00Z,28.1530,-82.8010,15.38,1111122 
COMPS,ioos:station:USF.COMPS:FHP:1,2019-02-02T00:30:00Z,28.1530,-82.8010,15.4,1111122 
COMPS,ioos:station:USF.COMPS:FHP:1,2019-02-02T00:36:00Z,28.1530,-82.8010,15.41,1111122 
COMPS,ioos:station:USF.COMPS:FHP:1,2019-02-02T00:42:00Z,28.1530,-82.8010,15.42,1111122 
COMPS,ioos:station:USF.COMPS:FHP:1,2019-02-02T00:48:00Z,28.1530,-82.8010,15.61,1111122 
COMPS,ioos:station:USF.COMPS:FHP:1,2019-02-02T00:54:00Z,28.1530,-82.8010,15.97,1111122 
COMPS,ioos:station:USF.COMPS:FHP:1,2019-02-02T01:00:00Z,28.1530,-82.8010,16.32,1111122 
COMPS,ioos:station:USF.COMPS:FHP:1,2019-02-02T01:06:00Z,28.1530,-82.8010,16.64,1111122 
COMPS,ioos:station:USF.COMPS:FHP:1,2019-02-02T01:12:00Z,28.1530,-82.8010,17.15,1111122 
COMPS,ioos:station:USF.COMPS:FHP:1,2019-02-02T01:18:00Z,28.1530,-82.8010,17.95,1111122 
COMPS,ioos:station:USF.COMPS:FHP:1,2019-02-02T01:24:00Z,28.1530,-82.8010,18.91,1111122 
COMPS,ioos:station:USF.COMPS:FHP:1,2019-02-02T01:30:00Z,28.1530,-82.8010,19.5,1111122 
COMPS,ioos:station:USF.COMPS:FHP:1,2019-02-02T01:36:00Z,28.1530,-82.8010,19.69,1111122 
COMPS,ioos:station:USF.COMPS:FHP:1,2019-02-02T01:42:00Z,28.1530,-82.8010,19.84,1111122 
COMPS,ioos:station:USF.COMPS:FHP:1,2019-02-02T01:48:00Z,28.1530,-82.8010,19.9,1111122 
COMPS,ioos:station:USF.COMPS:FHP:1,2019-02-02T01:54:00Z,28.1530,-82.8010,20.07,1111122 
COMPS,ioos:station:USF.COMPS:FHP:1,2019-02-02T02:00:00Z,28.1530,-82.8010,20.04,1111122 
COMPS,ioos:station:USF.COMPS:FHP:1,2019-02-02T02:06:00Z,28.1530,-82.8010,20.07,1111122 
COMPS,ioos:station:USF.COMPS:FHP:1,2019-02-02T02:12:00Z,28.1530,-82.8010,20.0,1111122 
COMPS,ioos:station:USF.COMPS:FHP:1,2019-02-02T02:18:00Z,28.1530,-82.8010,20.08,1111122 
COMPS,ioos:station:USF.COMPS:FHP:1,2019-02-02T02:24:00Z,28.1530,-82.8010,20.0,1111122 
COMPS,ioos:station:USF.COMPS:FHP:1,2019-02-02T02:30:00Z,28.1530,-82.8010,20.06,1111122 
COMPS,ioos:station:USF.COMPS:FHP:1,2019-02-02T02:36:00Z,28.1530,-82.8010,19.8,1111122 
COMPS,ioos:station:USF.COMPS:FHP:1,2019-02-02T02:42:00Z,28.1530,-82.8010,19.35,1111122 
COMPS,ioos:station:USF.COMPS:FHP:1,2019-02-02T02:48:00Z,28.1530,-82.8010,19.21,1111122 
COMPS,ioos:station:USF.COMPS:FHP:1,2019-02-02T02:54:00Z,28.1530,-82.8010,19.48,1111122 
COMPS,ioos:station:USF.COMPS:FHP:1,2019-02-02T03:00:00Z,28.1530,-82.8010,19.52,1111122 
COMPS,ioos:station:USF.COMPS:FHP:1,2019-02-02T03:06:00Z,28.1530,-82.8010,19.66,1111122 